ASIASAT 7

Last updated on Wed Nov 05 2025 00:02:47 GMT+0000 (Coordinated Universal Time)

1 37933U 11069A 25308.59697410 -.00000321 00000+0 00000+0 0 9996 2 37933 0.0534 99.5992 0001699 139.3083 125.6329 1.00271271 42605
UTC large
Height (km)
Speed (km/s)
/
Latitude / Longitude
Inclination (degrees)
Orbital Period (minutes)
Azimuth
Elevation
Range (km)
Doppler Factor

Next 0 passes for location: London (51.5072 / 0.1276)

Sorry there are no passes over London.